Tiree, United Kingdom

3:40 PM GMT on February 20, 2017 (GMT +0000)
Tiree

Weather History for EGPU - March, 2013

Change the Weather History Date:

Sunday, March 24, 2013

  Actual Average Record
Temperature  
Mean Temperature 37 °F -  
Max Temperature 41 °F 49 °F 53 °F (2003)
Min Temperature 33 °F 40 °F 33 °F (2013)
Degree Days  
Heating Degree Days 28    
Moisture  
Dew Point 22 °F    
Average Humidity 54    
Maximum Humidity 60    
Minimum Humidity 35    
Precipitation  
Precipitation 0.00 in 0.09 in - ()
Sea Level Pressure  
Sea Level Pressure 30.18 in    
Wind  
Wind Speed 26 mph ()    
Max Wind Speed 33 mph    
Max Gust Speed 45 mph    
Visibility 7.1 miles    
Events      
Averages and records for this station are not official NWS values.
T = Trace of Precipitation, MM = Missing Value Source: Averaged Metar Reports

Daily Weather History Graph

Daily Weather History Graph

Search for Another Location

Airport or City:

Trip Planner

Search our weather history database for the weather conditions in past years. The results will help you decide how hot, cold, wet, or windy it might be!

Date:

Astronomy

Mar. 24, 2013 Rise Set
Actual Time 6:18 AM GMT 6:50 PM GMT
Civil Twilight 5:40 AM GMT 7:27 PM GMT
Nautical Twilight 4:55 AM GMT 8:13 PM GMT
Astronomical Twilight 4:06 AM GMT 9:02 PM GMT
Moon 3:38 PM GMT (3/24) 4:51 AM GMT (3/24)
Length of Visible Light 13h 47m
Length of Day
12h 31m
Waxing Gibbous, 90% of the Moon is Illuminated
Mar 24
Waxing Gibbous
Mar 27
Full
Apr 3
Last Quarter
Apr 10
New
Apr 18
First Quarter

Hourly Weather History & Observations

Time (GMT) Temp. Windchill Dew Point Humidity Pressure Visibility Wind Dir Wind Speed Gust Speed Precip Events Conditions
12:20 AM 35.6 °F 23.4 °F 23.0 °F 60% 30.12 in 6.2 mi ESE 25.3 mph - N/A   Mostly Cloudy
12:50 AM 35.6 °F 23.4 °F 23.0 °F 60% 30.12 in 6.2 mi ESE 25.3 mph - N/A   Mostly Cloudy
1:20 AM 35.6 °F 23.2 °F 23.0 °F 60% 30.12 in 6.2 mi ESE 26.5 mph - N/A   Mostly Cloudy
1:50 AM 35.6 °F 23.4 °F 21.2 °F 56% 30.12 in 6.2 mi ESE 25.3 mph - N/A   Scattered Clouds
2:20 AM 35.6 °F 23.4 °F 23.0 °F 60% 30.12 in 6.2 mi ESE 25.3 mph - N/A   Mostly Cloudy
2:50 AM 36 °F - 23 °F 47% 30.14 in 9 mi ESE 26.5 mph - -   Mostly Cloudy
2:50 AM 35.6 °F 23.2 °F 23.0 °F 60% 30.12 in 6.2 mi ESE 26.5 mph - N/A   Mostly Cloudy
3:20 AM 35.6 °F 23.7 °F 23.0 °F 60% 30.12 in 6.2 mi ESE 24.2 mph - N/A   Mostly Cloudy
3:50 AM 35.6 °F 24.0 °F 23.0 °F 60% 30.12 in 6.2 mi ESE 23.0 mph - N/A   Scattered Clouds
4:20 AM 35.6 °F 23.4 °F 21.2 °F 56% 30.12 in 6.2 mi ESE 25.3 mph - N/A   Mostly Cloudy
4:50 AM 35.6 °F 23.2 °F 21.2 °F 56% 30.12 in 6.2 mi ESE 26.5 mph - N/A   Mostly Cloudy
5:20 AM 35.6 °F 23.0 °F 23.0 °F 60% 30.12 in 6.2 mi ESE 27.6 mph - N/A   Mostly Cloudy
5:50 AM 35 °F - 21 °F 44% 30.15 in 12 mi ESE 29.9 mph - -  
5:50 AM 35.6 °F 22.5 °F 21.2 °F 56% 30.12 in 6.2 mi ESE 29.9 mph - N/A   Mostly Cloudy
6:20 AM 35.6 °F 22.7 °F 21.2 °F 56% 30.15 in 6.2 mi ESE 28.8 mph - N/A   Mostly Cloudy
6:50 AM 33.8 °F 20.3 °F 21.2 °F 60% 30.15 in 6.2 mi ESE 28.8 mph - N/A   Partly Cloudy
7:20 AM 35.6 °F 22.5 °F 21.2 °F 56% 30.15 in 6.2 mi ESE 29.9 mph - N/A   Partly Cloudy
7:50 AM 35.6 °F 22.1 °F 21.2 °F 56% 30.15 in 6.2 mi ESE 32.2 mph - N/A   Scattered Clouds
8:20 AM 37.4 °F 24.8 °F 21.2 °F 52% 30.15 in 6.2 mi ESE 31.1 mph - N/A   Scattered Clouds
8:50 AM 36 °F - 21 °F 42% 30.18 in 14 mi ESE 31.1 mph - -   Partly Cloudy
8:50 AM 35.6 °F 22.3 °F 21.2 °F 56% 30.15 in 6.2 mi ESE 31.1 mph 42.6 mph N/A   Scattered Clouds
9:20 AM 37.4 °F 25.0 °F 21.2 °F 52% 30.15 in 6.2 mi ESE 29.9 mph - N/A   Partly Cloudy
9:50 AM 37.4 °F 24.4 °F 23.0 °F 56% 30.18 in 6.2 mi ESE 33.4 mph - N/A   Partly Cloudy
10:20 AM 39.2 °F 27.4 °F 21.2 °F 49% 30.18 in 6.2 mi ESE 29.9 mph - N/A   Unknown
10:50 AM 39.2 °F 27.6 °F 23.0 °F 52% 30.18 in 6.2 mi ESE 28.8 mph - N/A   Partly Cloudy
11:20 AM 39.2 °F 27.6 °F 23.0 °F 52% 30.18 in 6.2 mi ESE 28.8 mph - N/A   Scattered Clouds
11:50 AM 40 °F - 22 °F 36% 30.19 in 11 mi ESE 28.8 mph - -   Scattered Clouds
12:20 PM 41.0 °F 29.8 °F 24.8 °F 53% 30.18 in 6.2 mi ESE 29.9 mph - N/A   Partly Cloudy
12:50 PM 39.2 °F 27.2 °F 23.0 °F 52% 30.18 in 6.2 mi ESE 31.1 mph - N/A   Partly Cloudy
1:20 PM 41.0 °F 29.7 °F 23.0 °F 49% 30.18 in 6.2 mi ESE 31.1 mph - N/A   Partly Cloudy
1:50 PM 41.0 °F 29.7 °F 23.0 °F 49% 30.18 in 6.2 mi ESE 31.1 mph - N/A   Partly Cloudy
2:20 PM 39.2 °F 27.4 °F 21.2 °F 49% 30.18 in 6.2 mi ESE 29.9 mph - N/A   Partly Cloudy
2:50 PM 39 °F - 21 °F 35% 30.19 in 12 mi ESE 29.9 mph - -   Mostly Cloudy
2:50 PM 39.2 °F 27.4 °F 21.2 °F 49% 30.18 in 6.2 mi ESE 29.9 mph - N/A   Mostly Cloudy
3:20 PM 39.2 °F 27.6 °F 21.2 °F 49% 30.18 in 6.2 mi ESE 28.8 mph - N/A   Mostly Cloudy
3:50 PM 39.2 °F 27.4 °F 23.0 °F 52% 30.18 in 6.2 mi ESE 29.9 mph - N/A   Mostly Cloudy
4:20 PM 39.2 °F 27.6 °F 23.0 °F 52% 30.18 in 6.2 mi ESE 28.8 mph - N/A   Mostly Cloudy
4:50 PM 37.4 °F 25.2 °F 23.0 °F 56% 30.18 in 6.2 mi ESE 28.8 mph - N/A   Scattered Clouds
5:20 PM 37.4 °F 25.0 °F 23.0 °F 56% 30.18 in 6.2 mi ESE 29.9 mph - N/A   Scattered Clouds
5:50 PM 37 °F - 22 °F 42% 30.21 in 12 mi ESE 28.8 mph - -   Mostly Cloudy
5:50 PM 37.4 °F 25.2 °F 23.0 °F 56% 30.18 in 6.2 mi ESE 28.8 mph - N/A   Mostly Cloudy
6:20 PM 37.4 °F 25.6 °F 23.0 °F 56% 30.21 in 6.2 mi ESE 26.5 mph - N/A   Mostly Cloudy
6:50 PM 35.6 °F 22.7 °F 23.0 °F 60% 30.21 in 6.2 mi ESE 28.8 mph - N/A   Scattered Clouds
7:20 PM 35.6 °F 22.5 °F 23.0 °F 60% 30.21 in 6.2 mi ESE 29.9 mph - N/A   Mostly Cloudy
7:50 PM 35.6 °F 23.2 °F 23.0 °F 60% 30.24 in 6.2 mi ESE 26.5 mph - N/A   Mostly Cloudy
8:20 PM 35.6 °F 23.0 °F 23.0 °F 60% 30.24 in 6.2 mi ESE 27.6 mph - N/A   Mostly Cloudy
8:50 PM 37 °F - 23 °F 43% 30.26 in 14 mi ESE 29.9 mph - -   Partly Cloudy
8:50 PM 37.4 °F 25.0 °F 23.0 °F 56% 30.24 in 6.2 mi ESE 29.9 mph 44.9 mph N/A   Scattered Clouds
9:20 PM 37.4 °F 24.8 °F 21.2 °F 52% 30.24 in 6.2 mi ESE 31.1 mph - N/A   Mostly Cloudy
9:50 PM 35.6 °F 23.2 °F 23.0 °F 60% 30.24 in 6.2 mi ESE 26.5 mph - N/A   Mostly Cloudy
10:20 PM 35.6 °F 22.7 °F 23.0 °F 60% 30.24 in 6.2 mi ESE 28.8 mph 41.4 mph N/A   Mostly Cloudy
10:50 PM 35.6 °F 23.7 °F 23.0 °F 60% 30.24 in 6.2 mi ESE 24.2 mph - N/A   Mostly Cloudy
11:20 PM 35.6 °F 23.7 °F 21.2 °F 56% 30.27 in 6.2 mi ESE 24.2 mph - N/A   Mostly Cloudy
11:50 PM 36 °F - 22 °F 43% 30.28 in 16 mi ESE 24.2 mph - -   Mostly Cloudy
11:50 PM 35.6 °F 23.7 °F 21.2 °F 56% 30.27 in 6.2 mi ESE 24.2 mph - N/A   Mostly Cloudy